Volver al catálogo

PIESAT-2 11

ActivoCienciaSSO
NORAD 62335·PAYLOAD·🇨🇳 China

Lanzado Dec 16, 2024 desde Taiyuan Satellite Launch Center

Loading…

Próximos Pases (próximas 24 horas)

TLE

ActualizadoSource: Space-Track

Época: Sep 14, 2026, 23:14 UTC

1 62335U 24241C   26257.96809053  .00006591  00000-0  35480-3 0  9998
2 62335  97.5347 204.6103 0002299  64.8043 295.3427 15.15167120 96409

Sigue PIESAT-2 11 en tiempo real con AllMySat

Download on the App Store